Location: Bois de la Silve
(44.4667°N, 6.7833°E)
Time: 00:26:14
(UTC+00:00)

USA 238 DEB - Pass Details

Date: 27 October 2020
Orbit: 1001 x 1211 km, 63.5° (Epoch: 22 November)

Event Time Altitude Azimuth Distance (km) Brightness Sun altitude
Exits shadow 03:24:06 59° 327° (NNW) 1,195 3.7 -29.0°
Drops below altitude 10° 03:30:35 10° 33° (NNE) 2,932 6.5 -27.9°
Sets 03:33:22 0° 37° (NE) 3,924 7.3 -27.4°
